Lapse_Rate
6.5 6.4 6.2 6.1 6.2 6.3 6.5 6.7 7.0 7.1 7.1 7.1 7.0 7.1 7.2 7.2 7.2 7.2 7.5 7.4 7.4 7.7 7.8 6.9 6.0 5.9 6.3 6.1 8.1 8.2 8.2 8.9 8.2 7.6 7.3 7.3 7.1 6.9 7.0 7.1 7.2 6.8 6.3 5.8 5.6
6.5 6.6 6.4 6.3 6.3 6.3 6.6 6.8 7.0 7.2 7.2 7.3 7.3 7.3 7.3 7.3 7.3 8.0 7.4 7.6 7.9 8.3 7.0 6.8 6.6 7.0 6.8 7.3 7.7 8.5 8.6 8.5 8.4 7.8 7.5 7.4 7.0 7.2 7.0 7.1 6.8 6.5 6.0 5.9 5.7
6.4 6.5 6.6 6.5 6.5 6.5 6.5 6.9 7.2 7.3 7.4 7.4 7.5 7.4 7.3 7.3 7.6 7.2 7.7 7.8 8.1 8.3 7.0 6.4 6.8 6.9 7.8 8.2 9.4 9.3 8.3 8.2 8.1 7.9 7.5 7.2 7.1 7.4 7.2 6.8 6.5 6.3 6.1 5.9 5.9
6.4 6.5 6.6 6.7 6.5 6.6 6.6 6.7 7.1 7.3 7.5 7.5 7.4 7.5 7.5 7.2 7.3 7.7 7.8 7.9 8.1 8.4 7.4 6.0 7.8 7.4 7.6 8.6 8.9 9.3 8.2 7.9 7.8 7.6 7.5 7.4 7.3 7.3 7.2 6.9 6.4 6.3 5.8 5.8 6.1
6.6 6.5 6.6 6.7 6.8 6.7 6.7 6.7 6.9 7.3 7.4 7.5 7.5 7.5 7.7 7.6 7.2 7.7 7.8 7.9 7.8 8.3 7.1 7.5 8.3 7.3 8.8 8.7 9.1 8.6 8.1 8.0 7.9 7.7 7.6 7.6 7.5 7.3 7.0 6.6 6.2 6.0 5.8 5.7 6.1
6.7 6.7 6.6 6.7 6.9 6.9 6.8 6.8 6.8 7.1 7.4 7.5 7.5 7.5 7.4 7.3 7.3 7.6 7.7 7.8 7.9 7.9 7.3 8.5 8.4 8.6 8.7 9.1 8.8 8.0 8.6 8.4 8.3 7.7 7.6 7.5 7.5 7.4 6.9 6.5 6.1 5.9 6.0 5.9 5.8
6.7 6.7 6.7 6.8 6.8 7.0 7.0 7.0 7.0 7.0 7.2 7.5 7.5 7.4 7.3 7.3 7.3 7.7 7.7 7.7 7.7 7.0 7.3 7.6 8.1 7.8 8.7 8.7 8.6 8.1 8.0 9.2 8.3 7.7 8.0 7.5 7.6 7.6 7.0 6.7 6.3 6.3 6.3 6.2 6.0
6.5 6.7 6.8 6.8 6.9 7.0 7.1 7.0 7.1 7.2 7.2 7.3 7.4 7.4 6.8 7.1 7.1 7.5 7.7 7.8 7.8 7.6 7.4 7.7 8.1 8.2 8.4 8.5 8.2 8.2 8.4 8.9 8.9 8.1 7.5 7.1 8.0 7.3 7.1 6.8 6.6 6.7 6.5 6.2 5.9
6.5 6.7 6.8 6.8 6.9 7.0 7.2 7.2 7.2 7.3 7.4 7.4 7.4 7.1 7.1 7.0 7.3 7.2 7.5 7.5 7.7 7.8 8.3 8.3 8.6 8.8 8.2 8.4 8.2 7.8 8.7 9.2 8.8 8.4 8.5 8.2 7.8 7.3 7.1 7.1 6.9 6.8 6.7 6.5 6.2
6.4 6.6 6.9 7.0 7.0 6.9 7.0 7.2 7.3 7.3 7.4 7.4 7.3 7.2 7.2 8.0 7.7 7.2 7.3 7.6 7.8 8.0 8.3 8.4 8.7 9.1 9.0 8.8 9.6 9.5 9.8 9.4 9.0 8.9 8.8 7.0 8.4 7.5 7.4 7.3 7.1 6.8 6.7 6.5 6.2
6.6 6.6 6.7 7.0 7.1 7.1 7.0 6.9 7.0 7.2 7.0 7.3 7.7 7.2 7.9 8.1 7.6 7.3 7.3 7.5 8.0 8.2 8.3 9.2 9.5 9.6 9.5 9.8 9.7 9.6 9.7 9.7 9.5 9.1 9.3 9.1 8.3 7.8 7.8 7.7 7.5 7.2 7.0 6.6 6.4
6.8 6.9 6.8 6.9 7.1 7.1 7.1 6.6 6.6 6.9 7.3 7.4 7.3 7.3 7.6 7.5 7.3 7.4 7.4 7.5 7.9 8.3 8.8 9.2 9.6 9.7 9.7 9.6 9.5 9.7 9.8 9.9 9.5 9.0 9.2 9.4 8.8 8.0 8.1 8.1 8.0 7.7 7.3 7.1 6.8
6.6 7.0 7.1 6.9 7.0 7.0 7.0 7.1 7.0 6.8 6.9 7.6 7.1 7.2 7.4 7.5 7.3 7.3 7.5 7.8 7.8 8.3 9.0 9.5 9.5 9.6 9.5 9.6 9.7 9.7 9.8 9.8 9.6 9.1 9.1 9.6 9.5 8.7 8.0 8.0 8.1 8.2 7.7 7.5 7.2
6.5 6.8 7.1 7.1 7.1 7.1 6.4 7.3 7.2 7.1 6.6 7.9 7.6 7.6 7.4 7.3 7.1 7.3 7.5 7.9 7.9 7.9 8.9 9.5 9.7 9.7 9.6 9.7 9.7 9.8 9.8 9.7 9.7 9.6 9.0 9.1 9.7 9.2 8.8 8.0 7.9 8.1 8.1 7.8 7.5
6.6 6.8 7.0 7.1 7.0 6.7 7.1 7.2 7.3 7.3 7.8 9.1 8.0 8.2 7.9 7.4 8.2 7.7 7.8 8.0 7.9 8.0 8.6 8.5 9.6 9.7 9.6 9.6 9.7 9.6 9.7 9.7 9.7 9.7 10.0 9.5 9.3 9.1 9.5 8.5 8.1 8.1 8.1 8.0 7.8
6.7 6.9 7.0 7.2 7.1 7.1 7.1 7.2 7.3 7.1 8.3 9.3 8.4 8.0 7.9 7.9 7.8 8.1 8.4 8.0 8.1 8.2 8.0 8.4 9.6 9.7 9.6 9.7 9.7 9.6 9.6 9.7 9.2 9.6 9.7 9.8 9.6 9.6 9.5 9.2 8.7 8.5 8.4 8.3 7.8
6.7 6.8 7.0 7.1 7.1 7.5 7.2 7.1 6.9 7.6 8.8 9.1 9.3 8.5 8.3 8.1 8.0 8.0 8.2 8.7 7.9 8.0 8.0 8.3 8.2 9.6 9.7 9.7 9.7 9.6 9.6 9.7 9.7 9.7 9.6 9.7 9.5 9.5 9.6 9.5 9.3 9.0 8.6 8.4 8.3
6.4 6.6 6.7 6.9 7.0 7.0 7.0 6.6 7.1 8.1 8.9 9.6 9.6 9.1 8.8 8.7 8.5 8.3 8.2 8.4 8.9 8.1 8.5 9.1 8.7 8.7 9.2 9.0 9.4 9.7 9.7 9.6 9.4 9.6 9.8 9.7 9.7 9.6 9.4 9.3 9.3 9.7 9.2 8.6 8.4
6.4 6.4 6.4 6.5 6.7 6.9 6.7 6.7 7.4 8.3 9.2 9.5 9.4 9.7 9.3 9.3 9.0 9.4 8.6 8.4 9.2 9.0 8.6 9.2 9.6 9.7 9.7 9.5 9.2 9.1 9.7 9.7 9.6 9.7 9.6 9.5 9.6 9.4 9.2 9.1 8.9 9.1 8.8 8.6 8.7
6.3 6.1 5.2 5.9 6.2 6.3 6.0 6.6 7.5 8.1 8.6 8.6 8.6 8.7 8.8 9.6 9.7 9.6 9.5 9.1 8.6 9.6 9.7 9.3 9.4 9.5 9.7 9.7 9.6 9.5 9.6 9.7 9.7 9.5 9.3 9.6 9.6 9.6 9.2 9.0 8.9 9.0 9.1 8.8 8.7
6.1 5.6 5.6 5.9 6.1 5.7 5.9 6.6 7.0 7.5 8.0 8.2 7.9 7.8 8.1 8.6 9.3 9.6 9.7 9.6 9.7 9.5 9.7 9.7 9.7 9.4 9.7 9.7 9.7 9.7 9.5 9.5 9.6 9.6 9.7 9.6 9.8 9.7 9.1 9.0 8.9 8.9 9.3 8.9 8.5
6.4 5.9 5.7 6.0 5.6 6.1 6.4 6.8 6.9 7.2 7.4 7.4 7.5 7.7 7.9 8.0 8.3 9.3 9.6 9.6 9.7 9.7 9.7 9.7 9.7 9.7 9.6 9.7 9.7 9.7 9.7 9.7 9.7 9.5 9.5 9.6 9.5 9.2 9.3 9.4 9.2 9.1 9.6 9.6 8.7
6.4 5.9 5.8 5.8 6.2 6.8 7.0 7.1 7.1 7.1 7.0 6.9 7.1 7.4 7.5 7.7 8.0 8.0 8.5 8.7 9.1 9.3 9.7 9.7 9.7 9.7 9.7 9.7 9.7 9.7 9.7 9.7 9.7 9.7 9.6 9.7 9.7 9.7 9.5 9.7 9.7 9.6 9.7 9.3 9.0
6.4 6.2 6.3 6.0 6.2 6.4 6.7 6.8 6.8 6.8 6.6 6.8 6.8 6.9 6.9 7.1 7.5 7.8 8.0 8.2 8.6 9.1 9.4 9.3 9.5 9.6 9.7 9.6 9.6 9.7 9.7 9.6 9.7 9.7 9.7 9.7 9.7 9.7 9.5 9.6 9.6 9.5 9.3 9.3 9.0
5.4 5.6 5.3 5.7 6.0 6.0 6.0 6.0 6.0 6.2 6.5 6.5 6.6 6.8 7.1 7.0 7.3 7.7 7.9 8.3 8.5 8.9 8.9 9.1 9.1 9.4 9.6 9.6 9.7 9.6 9.7 9.6 9.7 9.7 9.6 9.6 9.7 9.7 9.4 9.5 9.5 9.7 9.6 9.2 9.0
5.9 5.6 5.5 5.6 5.1 5.6 6.0 6.1 6.2 6.4 6.5 6.6 6.7 6.9 7.0 7.1 7.2 7.6 7.9 8.1 8.4 9.0 9.5 8.9 8.7 8.9 9.1 9.6 9.7 9.7 9.7 9.7 9.7 9.7 9.6 9.5 9.4 9.5 9.6 9.4 9.2 9.5 9.6 9.1 9.1
5.9 5.8 5.5 5.4 5.0 5.4 5.9 5.9 5.9 5.9 5.9 6.0 6.2 6.3 6.5 6.9 7.1 7.3 7.0 7.5 8.0 8.0 8.0 9.1 9.2 9.7 9.0 9.1 9.6 9.7 9.6 9.7 9.7 9.7 9.7 9.7 9.6 9.4 9.5 9.7 9.5 9.4 9.5 9.0 9.0
Wind_Speed
18 19 19 19 17 17 18 18 18 17 17 17 16 16 15 16 18 5 9 1 5 21 3 3 13 22 19 16 11 3 2 10 11 16 13 12 13 12 13 11 4 19 19 20 16
19 19 20 20 19 17 18 18 19 18 18 17 16 14 14 12 11 13 5 10 23 22 15 18 11 8 6 8 12 11 9 10 17 15 13 15 13 12 11 14 16 18 20 18 16
20 20 21 22 22 20 18 18 18 19 18 18 17 14 12 12 7 7 9 14 18 22 23 7 3 6 5 22 10 11 11 12 16 13 16 12 13 7 16 14 14 18 17 17 15
21 21 20 21 22 22 20 19 19 19 19 18 17 14 11 6 1 6 12 14 14 19 22 25 17 10 11 9 12 13 13 13 13 10 12 10 12 6 13 17 18 18 17 16 15
21 22 21 20 21 23 22 21 21 20 19 19 17 13 7 8 1 10 13 11 12 13 20 24 16 17 2 4 4 14 14 12 6 15 12 9 11 8 14 19 18 18 17 15 12
21 20 21 22 21 22 24 24 22 21 20 20 17 16 6 15 7 13 12 12 13 16 15 10 14 14 6 7 5 20 9 10 12 10 13 12 12 11 12 18 18 17 15 15 14
23 23 22 21 23 23 24 25 24 21 21 19 14 7 12 10 10 11 11 11 15 9 13 14 13 18 19 18 15 8 8 2 11 13 6 14 13 12 15 18 17 18 16 14 12
26 26 25 24 23 25 25 24 24 21 19 18 10 6 8 1 5 11 11 12 12 9 13 12 11 13 11 5 9 5 5 5 12 19 10 10 11 14 16 17 15 15 15 14 17
28 28 28 27 26 25 26 26 24 16 12 12 6 8 15 3 11 12 13 14 10 10 12 12 10 11 13 8 13 11 11 9 11 20 14 15 17 17 16 16 14 13 13 13 14
28 30 30 30 27 26 30 17 6 12 7 9 10 9 14 15 12 15 14 13 13 14 14 17 14 15 11 10 5 3 7 4 12 7 10 14 13 17 17 17 15 14 14 13 12
29 30 32 31 31 22 15 4 4 6 13 13 13 13 22 21 10 13 15 13 13 15 15 18 14 6 19 0 5 6 8 11 12 6 8 16 16 16 15 15 16 15 15 15 15
31 31 33 34 32 25 6 6 7 8 10 19 23 21 18 15 11 13 16 15 13 15 17 17 14 13 8 6 9 5 5 3 6 6 7 4 16 17 15 14 16 16 16 17 17
32 33 34 37 36 10 10 6 7 10 8 19 21 23 20 13 15 16 19 15 19 19 19 19 21 6 2 6 12 11 6 10 12 7 6 5 1 15 17 13 14 16 17 17 17
32 32 33 40 6 12 5 5 8 6 6 17 20 24 21 20 23 22 24 19 19 23 22 23 20 18 13 10 15 14 8 4 2 11 9 14 8 8 17 16 14 14 16 16 18
32 32 33 13 11 6 11 9 9 8 6 4 16 9 16 26 23 21 21 25 19 20 21 21 23 21 14 13 18 15 7 11 12 13 13 14 4 6 17 16 19 15 18 18 20
35 31 28 2 6 12 11 11 8 6 10 5 8 8 12 18 23 24 21 23 21 18 23 23 21 22 16 14 17 6 12 12 8 13 13 12 6 10 16 17 19 18 17 16 21
37 37 14 11 6 14 10 8 6 9 12 15 10 12 13 16 18 20 23 21 17 18 21 21 22 22 18 11 17 7 13 11 11 11 11 14 3 9 13 13 16 20 15 16 15
43 38 8 8 12 11 8 7 10 10 20 11 1 10 11 13 17 21 22 24 20 22 19 17 18 23 16 16 17 14 16 14 13 10 6 7 4 10 14 9 6 14 17 17 16
41 7 6 7 6 5 7 10 13 14 13 16 20 9 12 15 15 17 22 23 24 21 21 19 23 18 22 22 20 20 17 21 20 19 9 16 10 12 17 13 11 9 11 10 9
9 8 8 6 3 6 8 14 20 19 22 14 13 15 19 20 17 16 18 20 25 26 21 19 22 25 17 22 23 23 18 17 11 14 15 13 14 9 17 15 15 13 15 10 9
5 5 6 5 4 6 9 14 16 18 18 17 15 17 20 24 23 21 14 18 17 23 23 23 20 21 22 19 22 19 18 20 17 14 11 12 9 9 18 17 16 15 15 15 12
6 4 7 4 6 7 10 16 16 17 18 17 18 16 17 22 23 21 19 19 15 17 22 23 22 19 23 23 21 22 23 22 14 16 15 14 2 13 15 17 16 16 15 17 12
6 8 6 4 7 7 11 13 10 12 13 15 20 20 19 18 22 22 22 22 22 22 15 16 17 18 22 19 24 23 20 17 20 17 18 13 9 14 18 17 16 14 15 15 13
5 4 1 3 8 10 10 11 13 12 13 17 16 18 20 22 22 22 24 26 19 21 7 12 16 22 16 21 20 19 23 23 24 17 16 18 18 16 15 13 14 14 18 18 14
3 6 12 7 12 18 15 15 16 17 16 16 16 19 19 20 21 23 23 21 23 23 18 14 17 20 23 25 26 28 23 27 25 21 20 17 18 19 14 10 12 14 18 20 15
6 6 9 13 16 16 14 15 17 16 15 13 17 17 18 19 20 19 23 23 20 19 20 19 18 21 25 28 24 26 27 22 24 24 22 24 25 22 9 17 14 14 17 19 16
8 10 6 10 14 13 12 13 16 16 17 18 20 19 20 18 20 20 20 22 20 22 25 22 21 19 21 25 26 25 27 25 21 26 24 21 22 20 19 3 17 15 11 18 18
Wind_Direction
358 351 348 345 347 341 337 334 331 330 324 321 319 317 314 312 305 232 245 44 175 162 160 126 8 4 301 228 199 193 217 94 112 96 117 121 92 98 123 145 139 114 136 129 150
357 351 346 343 342 341 333 330 326 325 320 317 313 310 310 313 281 258 130 117 142 147 100 47 50 79 317 270 250 211 57 35 90 107 107 101 111 138 113 103 88 99 111 138 158
350 347 342 338 336 334 331 326 322 319 316 313 310 309 302 305 278 105 154 148 163 163 110 59 282 188 241 267 82 73 61 51 77 109 92 114 133 124 128 124 126 129 136 149 154
351 349 348 342 335 332 329 323 320 316 312 308 306 309 295 254 346 93 147 168 184 193 157 178 220 196 247 18 341 73 81 95 97 113 125 99 113 75 114 126 130 137 146 153 172
354 347 343 340 333 327 323 320 317 313 308 305 307 314 285 250 109 131 143 170 189 217 248 186 178 202 152 218 326 85 85 83 121 88 116 126 89 98 102 115 128 140 153 160 176
346 344 341 334 329 325 319 316 313 309 304 303 309 312 241 280 103 147 164 167 215 230 287 4 347 330 141 172 67 28 18 132 108 125 114 109 134 123 131 125 134 148 162 172 152
341 339 335 329 324 320 314 310 307 303 299 297 306 296 273 285 133 175 170 203 234 280 315 347 333 322 18 61 55 87 330 48 141 129 27 352 140 123 145 135 148 160 172 148 162
339 336 332 327 322 318 313 305 300 294 290 284 290 275 272 92 168 192 195 231 251 268 281 295 313 302 71 109 88 314 340 211 128 121 91 4 120 136 152 151 166 165 155 151 143
338 334 331 327 322 319 313 303 293 287 260 271 263 231 265 85 222 211 214 249 243 255 261 273 281 282 123 137 228 161 241 153 152 152 145 171 141 148 160 162 173 165 163 163 162
337 333 330 326 323 323 316 285 264 304 224 239 258 263 255 231 217 219 216 247 276 291 280 257 250 246 151 222 347 140 181 162 154 162 125 4 128 153 171 163 173 178 181 178 179
337 332 329 327 322 329 331 255 221 204 236 235 197 215 260 229 270 196 204 226 256 271 277 284 258 270 264 92 346 299 315 119 135 133 294 158 158 157 180 167 172 186 187 183 189
335 333 330 326 321 319 277 269 37 332 293 241 250 264 251 275 196 229 228 221 243 256 263 257 265 276 27 314 286 308 278 113 117 116 207 85 150 162 175 178 177 183 188 189 194
334 332 331 327 319 294 255 9 322 312 272 270 239 233 234 233 238 245 218 219 246 257 251 266 281 260 8 283 286 254 257 224 126 139 281 185 157 160 168 183 180 187 184 195 189
332 331 331 331 304 335 272 10 320 323 279 261 213 226 216 234 231 238 261 213 241 251 260 275 267 272 267 266 280 293 1 311 275 180 233 216 215 203 167 179 186 200 183 187 187
330 329 326 321 307 297 353 313 324 272 279 87 175 155 218 218 233 230 232 254 230 256 245 252 268 270 261 269 272 305 344 279 249 269 239 220 191 226 188 182 182 204 191 190 183
327 326 332 140 229 262 318 306 275 236 247 167 142 200 227 228 225 240 216 225 255 240 257 268 265 266 278 232 251 272 298 280 274 255 272 238 158 180 182 189 183 185 204 200 180
323 316 310 300 274 343 308 276 231 243 230 265 211 200 212 237 226 231 246 220 217 234 249 244 252 259 258 269 262 197 252 252 228 234 249 114 161 146 140 175 184 180 182 188 187
321 311 229 242 293 283 282 241 243 255 240 272 181 287 277 223 229 220 230 246 209 230 251 237 239 236 233 224 252 230 239 257 254 254 1 112 238 160 143 138 73 175 170 181 190
317 285 232 199 233 292 252 230 234 242 294 332 328 276 264 262 255 234 219 237 239 219 238 253 261 243 216 225 218 249 254 257 280 292 251 218 129 115 135 158 152 185 142 185 167
319 290 244 80 290 237 244 254 276 285 311 317 271 293 301 292 266 220 249 224 241 247 238 237 258 270 241 209 227 232 253 256 250 274 288 288 175 195 168 166 166 183 154 170 137
268 245 95 161 239 236 246 258 263 270 279 292 285 286 282 288 297 293 251 242 245 239 247 255 241 255 264 255 213 220 234 255 276 268 251 265 268 210 161 167 168 187 172 152 154
299 287 110 258 250 235 247 250 260 279 292 306 292 284 272 289 296 296 292 298 290 280 235 241 254 251 247 261 257 223 222 230 247 251 272 276 144 128 164 180 175 192 173 155 144
300 294 132 237 266 283 302 299 251 278 309 292 286 286 296 282 278 286 289 291 298 297 299 270 246 252 252 247 255 220 232 250 237 245 263 264 250 183 173 182 178 195 173 132 132
284 308 166 229 262 269 296 299 306 318 293 283 281 282 282 277 279 272 267 277 284 282 31 314 269 266 243 246 258 226 209 228 245 246 238 249 258 278 150 167 177 194 154 141 145
289 2 345 303 324 338 326 311 301 292 290 289 280 282 271 270 271 272 275 271 273 282 299 286 273 272 272 270 257 263 224 215 232 254 260 267 257 251 165 187 209 198 154 143 161
1 345 335 296 292 294 284 271 274 283 291 288 287 288 276 274 271 275 277 280 280 283 285 271 260 266 271 273 266 260 260 227 218 227 252 266 271 275 250 174 189 191 158 153 166
4 338 304 299 292 290 292 318 313 320 303 302 307 307 294 292 301 304 304 299 288 270 269 284 277 242 245 254 259 255 253 260 256 221 217 227 244 263 277 237 176 177 177 163 167